Flag for Australia Weather past 2 weeks in Alice Springs, Northern Territory, Australia

Now
70 °F

Clear.


Feels Like: 70 °F
Forecast: 54 / 84 °F
Wind: 7 mph from East

Location: Alice Springs Aerodrome

Current Time: May 28, 2015 at 8:21:24 PM

Latest Report: May 28, 2015 at 7:30 PM


Visibility: N/A

Pressure: 30.09 "Hg

Humidity: 40%

Dew point: 45 °F

Location of Alice SpringsLocation

Historic Weather in Alice Springs — Graph

°F

Alice Springs temperature yesterday

Maximum temperature yesterday: 84 °F (at 2:00 PM)
Minimum temperature yesterday: 57 °F (at 5:30 AM)
Average temperature yesterday: 69 °F

Past Weeks' High & Low Weather Summary

 TemperatureHumidityPressure
High84 °F (May 27, 2:00 PM)93% (May 16, 6:30 AM)30.51 "Hg (May 16, 6:30 AM)
Low30 °F (May 16, 5:00 AM)11% (May 14, 3:31 PM)30.04 "Hg (May 18, 3:00 PM)
Average57 °F42%30.23 "Hg
* Reported May 13 6:30 PM — May 28 7:00 PM, Alice Springs, Weather by CustomWeather, © 2015

Note: Actual official high and low records may vary slightly from our data, if they occured in-between our weather recording intervals... More about our weather records

Advertising

Alice Springs weather history for previous 24 hours

 ConditionsComfort  
Time TempWeatherWind HumidityBarometerVisibility
7:00 PM
Thu, May 28
73 °FClear.7 mph36%30.09 "HgN/A
6:30 PM73 °FClear.7 mph36%30.09 "HgN/A
6:00 PM77 °FClear.7 mph30%30.07 "HgN/A
5:30 PM79 °FClear.8 mph28%30.07 "HgN/A
5:00 PM81 °FSunny.8 mph26%30.07 "HgN/A
4:30 PM81 °FSunny.8 mph26%30.07 "Hg10 mi
4:00 PM81 °FSunny.7 mph26%30.07 "Hg10 mi
3:30 PM82 °FSunny.7 mph26%30.07 "Hg10 mi
3:00 PM84 °FPassing clouds.6 mph35%30.07 "HgN/A
2:30 PM82 °FSunny.1 mph25%30.07 "Hg10 mi
2:00 PM81 °FSunny.6 mph28%30.07 "Hg10 mi
1:30 PM82 °FSunny.3 mph28%30.07 "Hg10 mi
12:30 PM81 °FSunny.8 mph30%30.09 "HgN/A
12:00 PM81 °FPassing clouds.6 mph30%30.12 "HgN/A
11:30 AM81 °FPassing clouds.10 mph30%30.12 "HgN/A
11:00 AM79 °FSunny.13 mph30%30.12 "Hg10 mi
10:30 AM77 °FSunny.10 mph34%30.15 "Hg10 mi
10:00 AM73 °FSunny.8 mph38%30.15 "Hg10 mi
9:30 AM70 °FSunny.No wind43%30.15 "Hg10 mi
9:00 AM66 °FSunny.No wind64%30.15 "Hg10 mi
8:30 AM63 °FSunny.No wind59%30.15 "Hg10 mi
8:00 AM57 °FSunny.5 mph67%30.15 "Hg10 mi
7:30 AM54 °FSunny.6 mph72%30.15 "Hg10 mi
7:00 AM54 °FSunny.6 mph72%30.12 "Hg10 mi
6:30 AM54 °FClear.6 mph77%30.12 "Hg10 mi
6:00 AM54 °FClear.6 mph77%30.12 "Hg10 mi
5:30 AM54 °FClear.5 mph72%30.09 "HgN/A
5:00 AM54 °FClear.3 mph72%30.09 "HgN/A
4:30 AM55 °FClear.5 mph72%30.09 "HgN/A
4:00 AM55 °FClear.6 mph67%30.09 "HgN/A
3:30 AM54 °FClear.7 mph72%30.07 "HgN/A
3:00 AM57 °FClear.No wind63%30.07 "HgN/A
2:30 AM57 °FClear.2 mph72%30.07 "HgN/A
2:00 AM57 °FClear.6 mph67%30.09 "HgN/A
1:30 AM59 °FClear.No wind59%30.09 "HgN/A
1:00 AM59 °FClear.3 mph59%30.09 "HgN/A
12:30 AM61 °FClear.6 mph59%30.09 "HgN/A
12:00 AM61 °FClear.5 mph55%30.12 "HgN/A
11:30 PM
Wed, May 27
64 °FClear.7 mph56%30.12 "HgN/A
11:00 PM64 °FClear.5 mph56%30.12 "HgN/A
10:30 PM64 °FClear.7 mph56%30.12 "HgN/A
9:30 PM70 °FClear.6 mph46%30.12 "HgN/A
9:00 PM70 °FClear.6 mph46%30.12 "HgN/A
8:30 PM70 °FPassing clouds.6 mph46%30.12 "HgN/A
8:00 PM72 °FPassing clouds.6 mph44%30.09 "HgN/A
Weather by CustomWeather, © 2015

See weather overviewHow to use our weather pages